Regional Weather Roundup
Issued by NWS

Home | Current Version | Previous Version | Text Only | Print | Product List | Glossary Off
Versions: 1 2 3 4 5 6 7 8 9 10 11 12 13 14 15 16 17 18 19 20 21 22 23 24 25 26 27 28 29 30 31 32 33 34 35 36 37 38 39 40 41 42 43 44 45 46 47 48 49 50

535
ASUS44 KLIX 220301
RWRLA
LOUISIANA WEATHER ROUNDUP
NATIONAL WEATHER SERVICE NEW ORLEANS LA
1000 PM CDT SUN SEP 21 2014

NOTE: "FAIR" INDICATES FEW OR NO CLOUDS BELOW 12,000 FEET WITH NO
      SIGNIFICANT WEATHER AND/OR OBSTRUCTIONS TO VISIBILITY.
      SKY/WX - SKY CONDITION AND SIGNIFICANT WEATHER.
      TMP - AIR TEMPERATURE.    DP   - DEWPOINT TEMPERATURE.
      RH  - RELATIVE HUMIDITY.  PRES - PRESSURE.
      HX  - HEAT INDEX.         WCI  - WIND CHILL INDEX.

*  THESE STATIONS ARE NOT NWS OR FAA STATIONS AND ARE NOT UNDER
   NWS QUALITY CONTROL.

LAZ040-048-061>063-065-066-069-220400-
SOUTHEAST LOUISIANA

CITY           SKY/WX    TMP DP  RH WIND       PRES   REMARKS
N.O. AUDUBON   NOT AVBL
N.O. INTL ARPT PTCLDY    80  66  62 SE3       30.01R
N.O. LAKEFRONT CLEAR     79  71  76 SE5       30.01R
N.O. DOWNTOWN* FAIR      81  66  61 SE5       30.01S
SLIDELL        CLEAR     72  69  90 CALM      30.01R
BATON ROUGE    CLEAR     73  70  90 CALM      30.02R
BOOTHVILLE     CLEAR     81  73  76 E7        30.00S
BELLE CHASSE   CLEAR     72  68  87 CALM      30.00R
BOGALUSA*      FAIR      73  69  87 CALM      30.03R
GALLIANO*      NOT AVBL
NEW ROADS*     FAIR      73  71  93 CALM      30.02R
GONZALES*      FAIR      71  71 100 CALM      30.01R
HAMMOND*       NOT AVBL
HOUMA*         CLEAR     72  67  82 CALM      30.00S
PORT FOURCHON* PTCLDY    81  73  78 E7        30.03S

$$

LAZ041-044-053-054-220400-
SOUTHWEST LOUISIANA

CITY           SKY/WX    TMP DP  RH WIND       PRES   REMARKS
LAKE CHARLES   CLEAR     75  71  87 CALM      30.02R
LAFAYETTE      CLEAR     75  74  96 CALM      30.02R
PATTERSON      CLEAR     72  70  94 CALM      30.04R
SALT POINT       N/A     77  71  82 CALM      30.00R
NEW IBERIA     CLEAR     74  71  91 CALM      30.02R
CHENAULT AIRPK CLEAR     77  72  85 CALM      30.03R

$$

LAZ027-028-220400-
CENTRAL LOUISIANA

CITY           SKY/WX    TMP DP  RH WIND       PRES   REMARKS
FORT POLK      CLEAR     76  71  85 NW3       30.03R
ALEXANDRIA INT CLEAR     76  71  85 CALM      30.01R
ALEXANDRIA     CLEAR     74  72  93 CALM      30.03R

$$

LAZ001-002-220400-
NORTHWEST LOUISIANA

CITY           SKY/WX    TMP DP  RH WIND       PRES   REMARKS
SHREVEPORT     PTCLDY    83  67  58 N8        30.04R
BARKSDALE AFB  PTCLDY    79  68  69 CALM      30.05R
DTN SHREVEPORT CLEAR     78  69  73 CALM      30.04R

$$

LAZ014-016-220400-
NORTHEAST LOUISIANA

CITY           SKY/WX    TMP DP  RH WIND       PRES   REMARKS
MONROE         MOCLDY    79  71  76 N3        30.03R
TALLULAH       CLEAR     72  70  93 CALM      30.02R

$$




USA.gov is the U.S. government's official web portal to all federal, state and local government web resources and services.